Wind_Speed
7 7 7 7 7 8 8 7 8 8 8 8 8 8 8 9 9 9 9 9 9 9 9 9 9 9 9 10 10 10 11 12 12 11 12 13 13 13 13 13 13 13 13
8 8 9 9 9 8 9 9 8 8 8 8 8 8 8 8 8 8 9 9 9 9 9 9 9 10 10 11 11 11 11 12 12 12 12 12 12 13 13 13 14 14 14
9 9 9 9 9 9 9 9 9 8 8 8 8 8 9 8 9 9 9 9 9 9 9 10 11 11 11 11 11 11 11 11 12 12 12 12 12 13 14 14 14 14 14
9 9 9 8 8 9 9 9 9 8 8 9 9 9 8 9 9 10 10 9 9 10 11 11 12 12 12 12 11 11 11 12 12 12 12 12 13 13 13 14 14 14 14
10 10 10 9 9 9 9 9 9 9 9 9 10 10 10 10 10 10 10 10 11 11 11 12 12 12 12 12 11 11 12 12 12 12 13 13 13 14 14 14 15 15 15
10 10 10 10 10 10 9 9 10 10 10 10 10 11 11 10 11 11 11 11 12 12 12 12 12 12 12 11 12 12 12 13 13 13 13 14 14 15 15 15 15 16 16
11 11 11 11 10 10 10 11 11 11 11 11 12 12 12 12 12 12 12 13 13 13 13 13 12 12 12 12 13 13 13 13 14 14 15 15 15 15 15 15 16 16 16
12 12 12 11 11 11 11 12 12 12 12 13 13 13 13 13 13 13 14 14 14 14 14 14 13 14 14 14 14 14 14 14 14 15 16 16 16 16 15 16 16 17 17
13 13 13 13 12 12 13 13 13 13 13 13 13 14 13 14 14 15 15 15 15 14 15 15 15 15 15 15 15 15 15 15 16 16 16 16 16 16 16 17 17 17 17
14 14 14 14 14 14 14 14 14 14 14 14 14 14 15 15 16 16 16 16 16 16 16 17 17 17 16 16 16 16 16 17 17 16 16 16 17 17 17 18 18 18 17
15 16 16 15 16 16 16 16 16 16 16 16 16 16 16 16 17 17 17 17 17 17 17 18 18 18 18 17 17 17 17 17 17 17 17 17 17 18 18 18 18 19 18
16 17 17 17 17 17 17 17 18 17 18 18 18 18 18 17 17 17 17 18 18 18 18 18 18 18 18 19 19 19 18 17 17 17 17 17 18 18 19 19 20 20 20
17 18 18 18 19 19 19 19 19 19 19 19 19 19 19 18 19 19 19 19 19 19 19 20 20 19 19 20 20 20 19 18 17 17 18 19 19 19 19 20 21 21 21
19 19 19 19 19 20 20 20 20 20 20 20 20 20 21 21 21 20 20 20 20 20 20 21 21 21 21 21 20 20 19 18 18 18 19 20 20 20 21 21 21 22 22
21 20 20 20 20 21 21 21 21 21 21 20 20 21 21 22 22 22 22 22 21 22 22 22 22 22 22 21 20 20 19 19 20 20 20 20 21 21 21 21 22 22 23
22 22 22 22 22 23 23 23 23 23 23 23 22 22 22 22 22 22 23 23 23 23 23 23 23 23 22 21 21 21 21 21 21 22 21 21 21 22 23 23 24 24 24
23 23 24 24 23 24 24 24 24 23 23 23 23 24 24 24 24 24 24 24 24 24 24 24 24 24 23 23 22 22 22 22 22 23 23 23 23 23 24 25 25 25 26
24 25 25 25 25 25 25 25 24 24 24 25 25 25 25 26 26 26 25 25 26 26 26 25 25 25 24 24 24 24 25 24 24 24 24 25 26 26 26 26 26 27 26
25 25 25 26 26 26 26 26 25 26 26 27 27 27 27 27 27 27 27 27 27 27 27 27 27 26 26 26 26 27 27 26 26 26 26 27 27 28 27 27 27 27 27
27 27 26 26 26 27 27 27 27 27 27 27 28 28 28 29 29 29 28 28 28 28 28 28 28 27 27 27 28 28 28 28 28 28 28 28 29 29 29 29 28 28 28
28 28 28 27 28 28 28 29 29 29 28 28 29 29 30 29 29 29 29 29 30 30 30 29 29 29 29 29 29 30 30 30 29 29 29 30 30 29 30 30 29 29 29
29 29 29 29 29 29 29 29 30 30 30 30 30 30 30 30 30 30 31 31 31 31 31 31 31 31 30 31 31 32 32 31 31 31 31 30 31 30 31 30 30 30 29
29 29 29 29 30 30 30 31 31 31 31 31 32 32 31 31 32 32 32 32 33 33 33 32 32 32 31 31 32 32 32 32 32 31 31 31 31 31 32 31 31 30 29
30 30 30 30 30 31 32 32 32 33 33 33 33 33 33 33 33 33 33 33 33 34 34 34 34 33 33 33 33 33 33 33 32 32 32 32 32 32 32 32 32 32 31
31 31 31 31 31 32 33 33 34 34 34 34 35 35 35 35 35 35 34 34 35 35 34 34 34 34 34 34 34 35 34 34 34 34 33 32 32 32 32 32 32 33 32
32 32 32 32 32 33 33 35 35 36 36 36 36 37 37 37 37 36 36 36 36 35 35 35 35 35 36 36 36 35 35 35 35 34 34 33 33 33 33 33 33 32 32
Wind_Direction
266 271 275 281 286 291 293 290 285 285 287 293 295 293 293 291 291 292 296 299 300 298 297 297 298 301 303 303 298 295 296 295 290 290 292 291 290 288 288 288 290 289 286
277 277 281 284 287 284 288 291 292 290 287 291 295 295 292 290 292 293 296 296 298 301 299 301 302 302 302 303 304 303 302 301 298 298 295 292 289 289 288 289 289 288 285
283 279 279 284 288 289 291 291 289 288 290 292 292 296 292 291 293 294 297 297 298 302 302 303 301 299 298 300 303 304 303 302 302 299 296 293 290 290 287 288 289 288 287
287 283 280 284 288 291 291 289 290 291 292 293 295 298 297 297 297 298 297 297 299 301 301 299 299 299 297 299 301 301 303 303 302 299 296 294 294 293 291 289 289 289 288
290 286 280 279 283 285 288 286 289 290 288 288 291 296 297 295 297 298 296 296 297 298 299 300 299 298 297 298 301 302 302 302 301 298 297 296 296 295 293 293 292 291 290
291 286 281 278 278 281 283 284 287 290 291 290 290 293 294 295 296 295 294 295 297 298 300 302 302 300 298 298 299 299 300 300 298 298 295 294 294 294 294 293 294 293 293
292 285 280 278 277 279 281 282 284 288 288 287 288 289 291 293 293 293 291 291 294 297 297 299 300 299 298 298 299 298 300 298 297 298 297 295 294 295 295 295 294 294 294
289 284 280 279 279 279 280 281 282 284 284 285 286 286 289 291 293 291 290 290 293 296 296 296 296 297 296 295 295 297 298 297 298 299 298 296 294 294 294 294 295 296 294
285 282 280 279 278 279 280 281 281 282 282 283 284 283 286 290 292 292 290 290 292 293 294 296 296 295 294 293 293 295 296 297 296 298 297 296 293 291 292 293 295 294 294
283 281 279 279 279 280 281 280 281 282 282 282 284 283 284 287 289 289 289 288 290 292 292 293 294 294 293 292 292 294 295 296 296 296 295 294 293 292 292 294 295 294 293
285 284 282 281 281 282 280 279 281 281 280 281 282 283 285 285 288 288 289 289 289 290 291 292 293 294 293 292 291 292 293 295 294 293 293 293 291 288 290 291 293 293 293
283 283 283 283 282 281 279 279 279 279 278 279 281 282 283 283 285 288 290 289 289 289 290 292 292 292 292 291 291 290 290 291 291 291 291 292 292 290 289 289 290 292 291
283 283 282 282 282 281 280 279 279 278 278 278 279 280 282 282 285 287 288 287 287 288 290 291 291 291 291 290 289 289 287 286 287 289 289 291 291 291 290 289 290 290 290
285 284 284 283 282 282 282 280 279 279 279 279 279 279 280 281 283 285 286 285 286 287 288 289 290 291 291 288 287 287 285 284 285 287 288 289 291 291 291 292 292 291 291
284 283 283 283 283 284 284 284 281 279 278 279 280 281 281 281 283 283 284 284 285 286 286 287 288 290 290 289 287 285 284 284 285 286 288 288 290 292 292 292 293 293 291
284 283 282 283 283 284 284 284 282 281 280 279 280 281 281 281 282 282 283 284 284 285 285 285 285 287 288 288 287 285 284 285 286 286 287 289 291 291 292 292 293 293 291
283 282 283 282 283 283 283 283 282 281 281 281 281 281 281 281 282 282 283 284 284 285 285 284 284 284 285 284 285 285 285 287 287 286 286 288 290 290 290 292 294 294 292
284 282 281 281 281 282 283 282 282 282 282 282 281 281 282 283 282 282 283 284 284 284 285 284 283 283 282 282 283 284 286 286 286 286 285 287 288 288 288 290 291 292 292
284 283 281 280 281 281 280 281 282 282 282 282 282 282 282 282 281 281 282 283 283 283 284 283 282 281 281 281 282 283 284 285 285 284 283 285 287 287 288 289 290 290 291
283 282 281 280 280 281 281 281 281 281 282 282 283 282 282 281 281 282 282 282 283 282 283 283 282 280 279 281 282 283 284 284 284 284 283 284 285 286 287 287 288 290 291
281 280 279 279 280 281 281 281 281 282 282 282 282 282 282 280 280 280 281 282 281 281 282 282 281 280 279 280 281 282 283 283 284 283 282 284 285 285 285 286 287 289 290
283 280 279 279 280 281 281 281 281 281 282 282 282 282 281 281 281 281 281 281 280 280 281 281 280 280 280 280 281 281 282 283 283 283 282 284 284 283 285 285 286 288 288
284 282 280 280 281 281 282 282 281 281 281 281 282 282 282 282 282 281 281 280 279 279 280 280 280 280 279 279 280 280 281 282 283 284 283 283 283 282 283 284 285 286 286
284 284 282 282 281 282 282 282 282 282 281 280 281 281 282 283 282 281 281 280 280 279 279 279 279 279 278 279 278 278 279 280 281 282 282 281 280 281 282 282 283 284 285
283 282 282 282 282 283 283 283 283 282 282 281 281 282 282 282 283 282 282 281 281 280 280 278 278 278 278 278 278 278 278 279 280 281 280 280 280 281 281 282 282 283 284
282 283 283 282 282 283 283 284 283 283 282 282 282 282 282 282 282 283 282 281 281 280 279 278 277 277 278 278 278 277 277 277 278 279 279 279 280 280 281 280 281 282 282
Height
5855 5855 5855 5855 5855 5855 5855 5854 5853 5854 5854 5854 5854 5854 5854 5854 5853 5853 5853 5852 5852 5851 5851 5851 5850 5850 5850 5849 5849 5848 5848 5847 5847 5846 5846 5846 5846 5846 5845 5845 5845 5845 5844
5853 5854 5854 5854 5854 5854 5853 5853 5852 5852 5852 5852 5852 5852 5852 5852 5852 5851 5851 5851 5850 5850 5849 5849 5849 5848 5848 5847 5847 5846 5846 5845 5844 5844 5844 5844 5844 5843 5842 5842 5842 5841 5841
5852 5852 5852 5852 5852 5852 5852 5851 5851 5851 5851 5851 5851 5851 5850 5850 5850 5850 5849 5849 5848 5848 5848 5847 5847 5846 5846 5845 5845 5844 5843 5843 5842 5841 5841 5841 5841 5840 5839 5839 5838 5838 5838
5850 5850 5850 5850 5850 5850 5850 5850 5850 5849 5849 5849 5849 5849 5849 5848 5848 5848 5847 5847 5847 5846 5846 5845 5845 5844 5844 5843 5842 5841 5841 5840 5839 5839 5838 5838 5837 5837 5836 5836 5835 5835 5835
5849 5848 5848 5849 5848 5848 5848 5848 5848 5848 5847 5847 5847 5847 5847 5846 5846 5846 5845 5845 5845 5844 5844 5843 5842 5842 5841 5840 5840 5839 5838 5838 5837 5836 5835 5835 5834 5834 5833 5833 5832 5831 5831
5847 5846 5846 5846 5846 5846 5846 5846 5846 5845 5845 5845 5845 5845 5845 5844 5844 5844 5843 5843 5843 5842 5841 5840 5840 5839 5838 5838 5837 5836 5835 5835 5834 5833 5832 5832 5831 5830 5829 5829 5828 5828 5827
5845 5844 5844 5844 5844 5844 5844 5844 5843 5843 5843 5843 5843 5842 5842 5842 5841 5841 5841 5840 5840 5839 5839 5838 5837 5836 5836 5835 5834 5833 5832 5831 5831 5830 5829 5828 5827 5826 5826 5825 5824 5824 5823
5843 5842 5842 5842 5842 5842 5842 5841 5841 5841 5841 5840 5840 5840 5839 5839 5838 5838 5838 5837 5837 5836 5835 5835 5834 5833 5832 5832 5831 5830 5829 5828 5827 5826 5825 5824 5823 5823 5822 5821 5821 5820 5819
5840 5840 5839 5839 5839 5839 5839 5839 5839 5838 5838 5837 5836 5837 5836 5836 5835 5835 5834 5834 5833 5833 5832 5831 5831 5830 5829 5828 5827 5826 5825 5824 5823 5822 5821 5820 5819 5819 5818 5817 5816 5816 5815
5837 5837 5837 5836 5836 5836 5836 5835 5835 5835 5835 5834 5833 5833 5833 5832 5832 5831 5831 5830 5830 5829 5828 5827 5827 5826 5825 5824 5823 5822 5821 5820 5819 5818 5817 5816 5815 5814 5814 5813 5812 5811 5810
5834 5834 5833 5833 5833 5832 5832 5832 5831 5831 5831 5830 5830 5829 5829 5828 5828 5827 5826 5826 5825 5825 5824 5823 5822 5821 5821 5820 5819 5818 5817 5816 5815 5814 5813 5812 5811 5810 5809 5808 5807 5806 5805
5831 5830 5829 5829 5828 5828 5827 5827 5827 5827 5826 5826 5826 5825 5825 5824 5823 5823 5822 5821 5821 5820 5819 5819 5818 5817 5816 5815 5814 5813 5812 5811 5810 5809 5808 5807 5806 5805 5804 5803 5802 5801 5800
5826 5826 5825 5824 5824 5824 5823 5823 5822 5822 5821 5821 5821 5820 5820 5819 5819 5818 5817 5816 5816 5815 5814 5814 5813 5812 5811 5810 5808 5807 5807 5806 5805 5804 5804 5803 5802 5800 5799 5798 5797 5796 5795
5822 5821 5820 5820 5819 5819 5818 5818 5817 5817 5816 5816 5815 5815 5814 5814 5813 5813 5812 5811 5810 5810 5809 5808 5807 5806 5805 5804 5803 5802 5801 5800 5800 5799 5798 5797 5796 5795 5794 5793 5791 5790 5789
5817 5816 5815 5815 5814 5814 5813 5813 5812 5811 5811 5810 5810 5809 5809 5808 5807 5807 5806 5805 5804 5804 5803 5802 5801 5800 5799 5798 5797 5796 5795 5795 5794 5793 5792 5791 5790 5789 5788 5787 5785 5784 5783
5812 5811 5810 5809 5809 5808 5808 5807 5806 5806 5805 5805 5804 5803 5802 5802 5801 5800 5800 5799 5798 5797 5796 5795 5794 5793 5792 5791 5790 5790 5789 5788 5788 5787 5786 5785 5784 5783 5781 5780 5779 5778 5776
5806 5805 5804 5803 5803 5802 5801 5801 5800 5799 5799 5798 5798 5797 5796 5795 5795 5794 5793 5792 5791 5790 5789 5788 5787 5786 5785 5785 5784 5783 5783 5782 5781 5780 5779 5778 5777 5776 5774 5773 5772 5770 5769
5800 5799 5798 5797 5796 5796 5795 5794 5793 5793 5792 5792 5791 5790 5789 5788 5787 5787 5786 5785 5784 5783 5782 5781 5780 5779 5778 5778 5777 5776 5776 5775 5774 5773 5772 5770 5769 5768 5767 5766 5765 5763 5762
5793 5792 5791 5790 5789 5789 5788 5787 5787 5786 5785 5784 5783 5782 5781 5781 5780 5779 5778 5777 5776 5775 5774 5773 5772 5771 5771 5770 5769 5769 5768 5767 5766 5765 5764 5763 5762 5760 5759 5758 5757 5756 5754
5786 5785 5784 5783 5782 5781 5780 5780 5779 5778 5777 5776 5775 5774 5773 5772 5772 5771 5770 5769 5768 5767 5766 5765 5764 5763 5763 5762 5761 5760 5760 5759 5758 5757 5756 5755 5753 5752 5750 5749 5748 5747 5746
5778 5777 5776 5775 5774 5773 5773 5772 5771 5770 5769 5768 5767 5766 5765 5764 5763 5762 5761 5760 5759 5758 5757 5756 5756 5755 5754 5753 5752 5751 5751 5750 5749 5748 5747 5746 5744 5743 5742 5740 5739 5738 5737
5770 5769 5768 5767 5766 5765 5764 5764 5763 5762 5761 5759 5758 5758 5756 5755 5754 5753 5752 5751 5750 5749 5748 5747 5746 5745 5745 5744 5743 5742 5741 5740 5739 5739 5737 5736 5735 5734 5733 5731 5730 5729 5727
5762 5760 5759 5759 5758 5757 5756 5755 5754 5753 5752 5751 5750 5748 5747 5746 5745 5743 5742 5741 5740 5739 5738 5737 5736 5736 5735 5734 5733 5732 5731 5730 5729 5728 5727 5726 5725 5724 5723 5722 5720 5719 5718
5753 5752 5751 5750 5749 5748 5747 5746 5745 5743 5742 5741 5740 5739 5738 5736 5735 5734 5732 5731 5730 5729 5728 5727 5726 5725 5724 5724 5723 5721 5721 5719 5718 5718 5717 5716 5715 5714 5713 5711 5710 5709 5708
5745 5743 5742 5741 5740 5739 5738 5736 5735 5733 5732 5731 5730 5729 5727 5726 5725 5723 5722 5721 5719 5718 5717 5716 5715 5714 5714 5713 5712 5711 5710 5709 5708 5707 5706 5705 5704 5704 5702 5701 5700 5699 5698
5735 5734 5733 5732 5731 5729 5728 5726 5724 5723 5721 5720 5719 5718 5716 5715 5713 5712 5711 5710 5708 5707 5705 5704 5704 5703 5703 5701 5701 5700 5699 5697 5696 5695 5695 5694 5693 5693 5692 5691 5690 5689 5688